7 * 24
多渠道服务支持
TIANQI 25 是中国天启星座系列的一颗低轨通信卫星,主要用于提供全球范围内的物联网通信服务。该卫星具备低功耗、广覆盖的特点,适用于环境监测、智能交通、应急通信等领域。作为天启星座的重要组成部分,TIANQI 25 的发射将进一步完善中国在低轨卫星通信领域的布局,提升数据传输效率和系统稳定性,助力“一带一路”沿线国家的数字化发展。
中国
(CN)
| 数据来源 | 国际轨道数据 |
| 星历时间: | 2025-12-15T06:36:15+0800 20小时前 查看轨道信息 |
| 半长轴: | 7275.088km |
| 偏心率: | 0.000899 |
| 轨道倾角: | 44.979° |
| 近地点辐角 | 93.197° |
| 升交点赤经 | 1.755° |
| 平近点角 | 266.989° |
| 近地点: | 890.412km |
| 远地点: | 903.494km |
| 周期: | 102.924分钟 |
| 每日圈数: | 13.990893 |